Location: Hylvaty SDH
(49.9612°N, 16.4057°E)
Time: 01:01:47
(UTC+02:00)

S-56A Canister/Altair - Visible Passes

Search period start: 12 August 2020 00:00
Search period end: 22 August 2020 00:00
Orbit: 633 x 2499 km, 38.9° (Epoch: 11 August)

Date Brightness Start Highest point End Pass type
(mag) Time Alt. Az. Time Alt. Az. Time Alt. Az.
16 Aug 9.7 05:11:45 10° SSW 05:15:43 19° SSE 05:20:41 10° ESE visible
17 Aug 9.7 04:40:01 10° S 04:43:14 16° SE 04:47:03 10° ESE visible
18 Aug 9.7 04:08:34 10° SSE 04:10:47 13° SE 04:13:15 10° ESE visible
20 Aug 9.3 05:03:52 10° SW 05:08:02 24° SSE 05:13:21 10° ESE visible
21 Aug 9.2 04:32:23 12° SSW 04:35:32 21° SSE 04:40:06 10° ESE visible
